This demonstration page uses our WeatherBlox Daily Observations layout. Learn more.

Left ArrowRight Arrow

41.86663, -103.66717

Hourly Observations for February 4, 2019

Temp ( °F °C ) Dew Point ( °F °C ) Humidity (%) Winds ( mph kmh ) Pressure ( in mb ) Visibility ( mi km ) Precip ( " mm )
12:53 am 00:53 Cloudy 13 -10.6 11 -11.7 92 92 E 12 19 29.82 1010 10 16 N/A
1:53 am 01:53 Cloudy 13 -10.6 10 -12.2 88 88 ENE 8 13 29.83 1010 10 16 N/A
2:53 am 02:53 Cloudy 12 -11.1 9 -12.8 87 87 NE 7 11 29.86 1011 10 16 N/A
3:53 am 03:53 Cloudy 13 -10.6 9 -12.8 84 84 NE 8 13 29.85 1011 10 16 N/A
4:53 am 04:53 Cloudy 14 -10 10 -12.2 84 84 NE 5 7 29.89 1012 10 16 N/A
5:53 am 05:53 Cloudy 13 -10.6 10 -12.2 88 88 E 5 7 29.92 1013 9 14 N/A
6:53 am 06:53 Cloudy 13 -10.6 10 -12.2 88 88 ESE 7 11 29.93 1014 10 16 N/A
7:53 am 07:53 Cloudy with Mist and Fog 13 -10.6 10 -12.2 88 88 E 8 13 29.95 1014 6 10 N/A
8:53 am 08:53 Cloudy with Light Snow 13 -10.6 10 -12.2 88 88 ESE 9 15 29.97 1015 3 4 N/A
9:21 am 09:21 Cloudy with Light Snow 13 -10.6 10 -12.2 88 88 E 9 15 30.17 1022 4 6 N/A
9:53 am 09:53 Cloudy with Light Snow 14 -10 10 -12.2 84 84 SE 8 13 30.04 1017 3 5 N/A
10:06 am 10:06 Cloudy with Light Snow 14 -10 10 -12 85 85 E 9 15 30.16 1021 3 4 N/A
10:15 am 10:15 Cloudy with Light Snow 15 -9.4 11 -11.7 84 84 E 9 15 30.15 1021 2 3 N/A
10:24 am 10:24 Cloudy with Light Snow 16 -9 10 -12 79 79 E 8 13 30.14 1021 2 3 N/A
10:39 am 10:39 Cloudy with Light Snow 16 -8.9 11 -11.7 80 80 ESE 10 17 30.13 1020 3 5 N/A
10:53 am 10:53 Cloudy with Light Snow 16 -8.9 11 -11.7 80 80 E 9 15 30.03 1017 3 5 N/A
11:48 am 11:48 Cloudy 18 -8 10 -12 73 73 ESE 10 17 30.09 1019 8 13 N/A
11:53 am 11:53 Cloudy 18 -7.8 11 -11.7 74 74 E 10 17 30.01 1016 8 13 N/A
12:53 pm 12:53 Mostly Cloudy 19 -7.2 11 -11.7 71 71 ESE 12 19 29.98 1015 10 16 N/A
1:16 pm 13:16 Partly Cloudy 19 -7 10 -12 68 68 SE 14 22 30.05 1017 10 16 N/A
1:23 pm 13:23 Mostly Cloudy 20 -6.7 11 -11.7 68 68 ESE 9 15 30.03 1017 10 16 N/A
1:53 pm 13:53 Mostly Cloudy 20 -6.7 11 -11.7 68 68 ESE 14 22 29.96 1014 10 16 N/A
2:16 pm 14:16 Mostly Sunny 21 -6.1 11 -11.7 65 65 ESE 13 20 30.01 1016 10 16 N/A
2:53 pm 14:53 Sunny 22 -5.6 12 -11.1 66 66 E 13 20 29.93 1014 10 16 N/A
3:53 pm 15:53 Sunny 23 -5 12 -11.1 63 63 ESE 14 22 29.93 1014 10 16 N/A
4:53 pm 16:53 Sunny 22 -5.6 11 -11.7 63 63 E 12 19 29.93 1014 10 16 N/A
5:53 pm 17:53 Clear 20 -6.7 10 -12.2 65 65 E 9 15 29.94 1014 10 16 N/A
6:53 pm 18:53 Clear 18 -7.8 9 -12.8 68 68 E 9 15 29.95 1014 10 16 N/A
7:53 pm 19:53 Clear 16 -8.9 9 -12.8 74 74 E 9 15 29.96 1015 10 16 N/A
8:53 pm 20:53 Clear 18 -7.8 9 -12.8 68 68 E 10 17 29.97 1015 10 16 N/A
9:53 pm 21:53 Clear 20 -6.7 10 -12.2 65 65 ESE 15 24 29.95 1014 10 16 N/A
10:46 pm 22:46 Cloudy 20 -6.7 9 -12.8 62 62 ESE 13 20 30.02 1017 10 16 N/A
10:53 pm 22:53 Cloudy 20 -6.7 9 -12.8 62 62 ESE 14 22 29.95 1014 10 16 N/A
11:53 pm 23:53 Partly Cloudy 19 -7.2 10 -12.2 68 68 ESE 17 28 29.93 1013 10 16 N/A

Powered by AerisWeather